FW3025 Weather Reports


time (UTC)temp
C
wind
direction
speed
KPH
gust
KPH
rain 1hr
cm
rain 24hr
cm
rain mn
cm
humidity
%
barometer
mb
20260509184538 10 215 0.0 3.2 0.03 0.89 0.18 94 957.1
20260509183058 10 204 1.6 4.8 0.03 0.89 0.18 94 957.1
20260509181537 10 169 0.0 8.0 0.03 0.89 0.18 94 957.1
20260509180037 10 159 1.6 4.8 0.00 0.86 0.15 94 957.0
20260509174540 10 136 0.0 3.2 0.00 0.86 0.15 94 956.9
20260509173026 9 163 0.0 3.2 0.00 0.86 0.15 95 957.0
20260509171531 9 164 0.0 3.2 0.03 0.86 0.15 94 956.8
20260509170022 9 164 0.0 3.2 0.03 0.86 0.15 94 956.9
20260509164534 9 150 0.0 8.0 0.03 0.86 0.15 94 957.0
20260509163042 9 223 0.0 6.4 0.03 0.86 0.15 94 957.1
20260509161539 9 157 1.6 8.0 0.03 0.84 0.13 94 957.1
20260509160027 9 175 0.0 3.2 0.03 0.84 0.13 94 957.2
20260509154603 9 178 0.0 6.4 0.05 0.84 0.13 94 957.5
20260509153159 9 104 0.0 0.0 0.08 0.84 0.13 94 957.5
20260509151558 9 125 0.0 0.0 0.08 0.81 0.10 94 957.7
20260509150051 8 172 0.0 0.0 0.10 0.81 0.10 94 957.8
20260509144507 8 172 0.0 0.0 0.10 0.79 0.08 94 958.0
20260509143008 8 172 0.0 0.0 0.10 0.76 0.05 94 958.1
20260509141503 8 172 0.0 0.0 0.10 0.71 0.03 94 958.1
20260509140107 8 172 0.0 0.0 0.13 0.71 0.00 94 958.0
20260509134504 8 172 0.0 0.0 0.15 0.69 0.69 94 958.0
20260509133005 8 172 0.0 0.0 0.15 0.66 0.66 93 958.2
20260509131504 8 172 0.0 0.0 0.20 0.64 0.64 93 958.0
20260509130004 8 172 0.0 0.0 0.20 0.58 0.58 93 958.2
20260509124509 7 172 0.0 0.0 0.20 0.56 0.56 93 958.4
20260509123009 7 172 0.0 0.0 0.18 0.51 0.51 93 958.5
20260509121512 7 172 0.0 0.0 0.15 0.43 0.43 93 958.6
20260509120007 7 172 0.0 0.0 0.15 0.38 0.38 93 958.6
20260509114540 7 172 0.0 0.0 0.18 0.36 0.36 93 958.6
20260509113040 7 172 0.0 0.0 0.20 0.33 0.33 92 958.5
20260509111540 7 172 0.0 0.0 0.18 0.28 0.28 92 958.4
20260509110039 7 173 0.0 0.0 0.18 0.25 0.25 92 958.4
20260509104555 7 173 0.0 0.0 0.13 0.20 0.20 92 958.3
20260509103102 7 148 0.0 0.0 0.08 0.15 0.15 92 958.3
20260509101554 7 103 0.0 0.0 0.03 0.10 0.10 92 958.3
20260509100058 7 103 0.0 3.2 0.03 0.08 0.08 91 958.1
20260509094546 7 103 0.0 0.0 0.05 0.08 0.08 91 958.3
20260509093044 7 103 0.0 0.0 0.05 0.08 0.08 91 958.2
20260509091543 7 103 0.0 0.0 0.05 0.08 0.08 91 958.3
20260509090049 7 103 0.0 0.0 0.03 0.05 0.05 91 958.3
20260509084540 6 103 0.0 0.0 0.03 0.05 0.05 90 958.4
20260509083037 6 103 0.0 1.6 0.00 0.03 0.03 90 958.3
20260509081537 6 103 0.0 0.0 0.00 0.03 0.03 89 958.5
20260509080040 6 103 0.0 3.2 0.00 0.03 0.03 89 958.7
20260509074524 6 103 0.0 3.2 0.00 0.03 0.03 88 958.8
20260509073023 6 65 0.0 1.6 0.03 0.03 0.03 88 958.8
20260509071522 6 65 0.0 0.0 0.03 0.03 0.03 86 958.6
20260509070021 6 65 0.0 0.0 0.03 0.03 0.03 85 958.7
20260509064523 7 65 0.0 0.0 0.03 0.03 0.03 84 958.8
20260509063026 7 65 0.0 0.0 0.00 0.00 0.00 82 959.0
20260509061527 7 65 0.0 0.0 0.00 0.00 0.00 80 959.3
20260509060029 7 65 0.0 0.0 0.00 0.00 0.00 79 959.4
20260509054526 7 65 0.0 0.0 0.00 0.00 0.00 78 959.4
20260509053026 7 65 0.0 0.0 0.00 0.00 0.00 77 959.5
20260509051525 7 65 0.0 0.0 0.00 0.00 0.00 77 959.4
20260509050041 7 65 0.0 0.0 0.00 0.00 0.00 76 959.3
20260509044524 7 65 0.0 0.0 0.00 0.00 0.00 75 959.4
20260509043024 7 65 0.0 0.0 0.00 0.00 0.00 74 959.5
20260509041523 7 65 0.0 0.0 0.00 0.00 0.00 74 959.8
20260509040022 7 65 0.0 0.0 0.00 0.00 0.00 73 959.7
20260509034520 7 65 0.0 0.0 0.00 0.00 0.00 72 959.7
20260509033021 7 65 0.0 0.0 0.00 0.00 0.00 71 959.7
20260509031530 8 65 0.0 0.0 0.00 0.00 0.00 69 959.5
20260509030024 8 65 0.0 0.0 0.00 0.00 0.00 66 959.8
20260509024542 8 65 0.0 0.0 0.00 0.00 0.00 63 960.0
20260509023041 8 65 0.0 0.0 0.00 0.00 0.00 62 959.8
20260509021541 8 65 0.0 0.0 0.00 0.00 0.00 61 959.8
20260509020039 8 65 0.0 0.0 0.00 0.00 0.00 61 960.0
20260509014526 8 65 0.0 0.0 0.00 0.00 0.00 61 959.9
20260509013030 9 334 0.0 0.0 0.00 0.00 0.00 60 959.7
20260509011525 9 334 0.0 0.0 0.00 0.00 0.00 59 959.6
20260509010027 10 334 0.0 1.6 0.00 0.00 0.00 59 959.5
20260509004530 10 334 0.0 0.0 0.00 0.00 0.00 58 959.1
20260509003024 10 334 0.0 0.0 0.00 0.00 0.00 54 959.0
20260509001532 10 334 0.0 0.0 0.00 0.00 0.00 54 959.0
20260509000036 11 334 0.0 0.0 0.00 0.00 0.00 53 958.8
20260508234531 11 334 0.0 0.0 0.00 0.00 0.00 55 958.7
20260508233031 11 334 0.0 0.0 0.00 0.00 0.00 53 958.6
20260508231508 11 334 0.0 0.0 0.00 0.00 0.00 52 958.5
20260508230006 11 334 0.0 3.2 0.00 0.00 0.00 52 958.4
20260508224507 12 334 0.0 3.2 0.00 0.00 0.00 49 958.6
20260508223016 12 330 0.0 3.2 0.00 0.00 0.00 49 958.5
20260508221552 12 343 0.0 4.8 0.00 0.00 0.00 48 958.3
20260508220052 12 272 0.0 4.8 0.00 0.00 0.00 48 958.7
20260508214608 12 236 0.0 4.8 0.00 0.00 0.00 49 958.6
20260508213101 12 198 1.6 8.0 0.00 0.00 0.00 47 958.4
20260508211515 12 202 0.0 4.8 0.00 0.00 0.00 50 958.6
20260508210013 12 55 0.0 11.3 0.00 0.00 0.00 47 958.7
20260508204509 13 278 3.2 11.3 0.00 0.00 0.00 47 958.8
20260508203011 12 229 6.4 12.9 0.00 0.00 0.00 47 959.1
20260508201502 12 43 3.2 8.0 0.00 0.00 0.00 48 959.1
20260508200136 12 355 1.6 12.9 0.00 0.00 0.00 48 959.2
20260508200003 12 355 1.6 12.9 0.00 0.00 0.00 48 959.3
20260508194558 12 339 0.0 11.3 0.00 0.00 0.00 51 959.1
20260508193057 11 331 3.2 8.0 0.00 0.00 0.00 54 959.4
20260508191521 11 290 3.2 16.1 0.00 0.00 0.00 54 959.6
20260508190013 11 52 6.4 16.1 0.00 0.00 0.00 54 959.9